Location: Rowland
(34.5359°N, 79.2929°W)
Time: 11:54:40
(UTC+00:00)

Vanguard 2 - Pass Details

Date: 11 October 2022
Orbit: 553 x 2932 km, 32.9° (Epoch: 08 December)

Event Time Altitude Azimuth Distance (km) Brightness Sun altitude
Rises 23:25:04 0° 275° (W) 6,012 14.3 -8.5°
Reaches altitude 10° 23:30:11 10° 262° (W) 5,313 13.4 -9.5°
Maximum altitude 23:41:01 22° 220° (SW) 4,769 12.1 -11.8°
Drops below altitude 10° 23:52:43 10° 178° (S) 5,695 11.9 -14.2°
Sets 23:58:40 0° 165° (SSE) 6,539 12.1 -15.4°
